Time,TemperatureF,DewpointF,PressureIn,WindDirection,WindDirectionDegrees,WindSpeedMPH,WindSpeedGustMPH,Humidity,HourlyPrecipIn,Conditions,Clouds,dailyrainin,SoftwareType,DateUTC
2013-01-24 00:00:00,57.0,48.8,29.92,ENE,67,2.0,9.0,74,0.00,,,0.00,Weather View 32 v70,2013-01-24 08:00:00,
2013-01-24 00:30:00,57.0,48.4,29.91,ENE,67,2.0,9.0,73,0.00,,,0.00,Weather View 32 v70,2013-01-24 08:30:00,
2013-01-24 01:00:00,59.0,52.1,29.91,ENE,67,2.0,7.0,78,0.00,,,0.00,Weather View 32 v70,2013-01-24 09:00:00,
2013-01-24 01:30:00,59.0,54.5,29.91,ESE,112,1.0,7.0,85,0.00,,,0.00,Weather View 32 v70,2013-01-24 09:30:00,
2013-01-24 02:00:00,58.0,53.8,29.91,East,90,0.0,6.0,86,0.00,,,0.00,Weather View 32 v70,2013-01-24 10:00:00,
2013-01-24 02:30:00,58.0,52.5,29.91,ENE,67,0.0,5.0,82,0.00,,,0.00,Weather View 32 v70,2013-01-24 10:30:00,
2013-01-24 03:00:00,58.0,51.2,29.92,ESE,112,1.0,5.0,78,0.00,,,0.00,Weather View 32 v70,2013-01-24 11:00:00,
2013-01-24 03:30:00,56.0,41.4,29.91,WNW,292,1.0,8.0,58,0.00,,,0.00,Weather View 32 v70,2013-01-24 11:30:00,
2013-01-24 04:00:00,52.0,36.3,29.91,SW,225,0.0,9.0,55,0.00,,,0.00,Weather View 32 v70,2013-01-24 12:00:00,
2013-01-24 04:30:00,51.0,19.8,29.90,NW,315,1.0,9.0,29,0.00,,,0.00,Weather View 32 v70,2013-01-24 12:30:00,
2013-01-24 05:00:00,50.0,-47.2,29.91,WSW,247,0.0,7.0,1,0.00,,,0.00,Weather View 32 v70,2013-01-24 13:00:00,
2013-01-24 05:30:00,50.0,-47.2,29.92,NW,315,5.0,7.0,1,0.00,,,0.00,Weather View 32 v70,2013-01-24 13:30:00,
2013-01-24 06:00:00,50.0,-47.2,29.92,ESE,112,0.0,8.0,1,0.00,,,0.00,Weather View 32 v70,2013-01-24 14:00:00,
2013-01-24 06:30:00,50.0,-47.2,29.93,NNE,22,0.0,8.0,1,0.00,,,0.00,Weather View 32 v70,2013-01-24 14:30:00,
2013-01-24 07:00:00,50.0,-47.2,29.95,SE,135,0.0,3.0,1,0.01,,,0.01,Weather View 32 v70,2013-01-24 15:00:00,
2013-01-24 07:30:00,50.0,-47.2,29.95,SE,135,0.0,2.0,1,0.01,,,0.01,Weather View 32 v70,2013-01-24 15:30:00,
2013-01-24 08:00:00,50.0,-47.2,29.95,SSE,157,0.0,0.0,1,0.01,,,0.02,Weather View 32 v70,2013-01-24 16:00:00,
2013-01-24 08:05:00,50.0,-47.2,29.95,SSE,157,0.0,0.0,1,0.01,,,0.02,Weather View 32 v70,2013-01-24 16:05:00,
2013-01-24 08:30:00,50.0,-47.2,29.96,SSE,157,0.0,0.0,1,0.02,,,0.03,Weather View 32 v70,2013-01-24 16:30:00,
2013-01-24 09:00:00,51.0,-46.6,29.98,WSW,247,0.0,0.0,1,0.01,,,0.03,Weather View 32 v70,2013-01-24 17:00:00,
2013-01-24 09:05:00,51.0,-46.6,29.98,WSW,247,0.0,0.0,1,0.01,,,0.03,Weather View 32 v70,2013-01-24 17:05:00,
2013-01-24 09:30:00,52.0,-46.0,29.99,SW,225,0.0,1.0,1,0.00,,,0.03,Weather View 32 v70,2013-01-24 17:30:00,
2013-01-24 10:00:00,53.0,-45.3,30.01,ESE,112,1.0,6.0,1,0.00,,,0.03,Weather View 32 v70,2013-01-24 18:00:00,
2013-01-24 10:06:00,53.0,-45.3,30.01,ESE,112,1.0,6.0,1,0.00,,,0.03,Weather View 32 v70,2013-01-24 18:06:00,
2013-01-24 10:30:00,53.0,-45.3,30.00,ESE,112,1.0,9.0,1,0.00,,,0.03,Weather View 32 v70,2013-01-24 18:30:00,
2013-01-24 11:00:00,54.0,-44.7,30.02,SW,225,1.0,9.0,1,0.00,,,0.03,Weather View 32 v70,2013-01-24 19:00:00,
2013-01-24 11:07:00,54.0,-44.7,30.02,SW,225,1.0,9.0,1,0.00,,,0.03,Weather View 32 v70,2013-01-24 19:07:00,
2013-01-24 11:30:00,55.0,-44.1,30.00,West,270,3.0,9.0,1,0.00,,,0.03,Weather View 32 v70,2013-01-24 19:30:00,
2013-01-24 12:00:00,58.0,-42.3,30.00,SW,225,0.0,9.0,1,0.00,,,0.03,Weather View 32 v70,2013-01-24 20:00:00,
2013-01-24 12:07:00,58.0,-42.3,30.00,SW,225,0.0,9.0,1,0.00,,,0.03,Weather View 32 v70,2013-01-24 20:07:00,
2013-01-24 12:30:00,60.0,33.6,30.01,NW,315,2.0,11.0,37,0.00,,,0.03,Weather View 32 v70,2013-01-24 20:30:00,
2013-01-24 13:00:00,60.0,39.1,30.00,WNW,292,6.0,11.0,46,0.00,,,0.03,Weather View 32 v70,2013-01-24 21:00:00,
2013-01-24 13:08:00,60.0,39.1,30.00,WNW,292,6.0,11.0,46,0.00,,,0.03,Weather View 32 v70,2013-01-24 21:08:00,
2013-01-24 13:30:00,61.0,50.7,30.01,WNW,292,5.0,9.0,69,0.00,,,0.03,Weather View 32 v70,2013-01-24 21:30:00,
2013-01-24 14:00:00,60.0,49.0,30.01,West,270,0.0,9.0,67,0.00,,,0.03,Weather View 32 v70,2013-01-24 22:00:00,
2013-01-24 14:08:00,60.0,49.0,30.01,West,270,0.0,9.0,67,0.00,,,0.03,Weather View 32 v70,2013-01-24 22:08:00,
2013-01-24 14:30:00,61.0,49.1,30.00,WNW,292,1.0,9.0,65,0.00,,,0.03,Weather View 32 v70,2013-01-24 22:30:00,
2013-01-24 15:00:00,61.0,53.0,30.00,NW,315,4.0,9.0,75,0.00,,,0.03,Weather View 32 v70,2013-01-24 23:00:00,
2013-01-24 15:09:00,61.0,53.0,30.00,NW,315,4.0,9.0,75,0.00,,,0.03,Weather View 32 v70,2013-01-24 23:09:00,
2013-01-24 15:30:00,62.0,54.7,30.01,WNW,292,4.0,9.0,77,0.00,,,0.03,Weather View 32 v70,2013-01-24 23:30:00,
2013-01-24 16:00:00,61.0,53.4,30.00,WNW,292,2.0,9.0,76,0.00,,,0.03,Weather View 32 v70,2013-01-25 00:00:00,
2013-01-24 16:09:00,61.0,53.4,30.00,WNW,292,2.0,9.0,76,0.00,,,0.03,Weather View 32 v70,2013-01-25 00:09:00,
2013-01-24 16:30:00,61.0,53.7,30.01,WNW,292,0.0,8.0,77,0.00,,,0.03,Weather View 32 v70,2013-01-25 00:30:00,
2013-01-24 17:00:00,60.0,52.8,30.02,NW,315,0.0,8.0,77,0.00,,,0.03,Weather View 32 v70,2013-01-25 01:00:00,
2013-01-24 17:30:00,59.0,48.8,30.01,NW,315,0.0,7.0,69,0.00,,,0.03,Weather View 32 v70,2013-01-25 01:30:00,
2013-01-24 18:00:00,57.0,40.5,30.02,NW,315,0.0,0.0,54,0.00,,,0.03,Weather View 32 v70,2013-01-25 02:00:00,
2013-01-24 18:30:00,57.0,35.3,30.02,WNW,292,0.0,1.0,44,0.00,,,0.03,Weather View 32 v70,2013-01-25 02:30:00,
2013-01-24 19:00:00,56.0,18.7,30.02,NW,315,2.0,5.0,23,0.00,,,0.03,Weather View 32 v70,2013-01-25 03:00:00,
2013-01-24 19:30:00,56.0,8.9,30.02,WNW,292,1.0,6.0,15,0.00,,,0.03,Weather View 32 v70,2013-01-25 03:30:00,
2013-01-24 20:00:00,55.0,-44.1,30.01,NW,315,1.0,6.0,1,0.00,,,0.03,Weather View 32 v70,2013-01-25 04:00:00,
2013-01-24 20:30:00,55.0,-44.1,30.01,NW,315,3.0,6.0,1,0.00,,,0.03,Weather View 32 v70,2013-01-25 04:30:00,
2013-01-24 21:00:00,54.0,-44.7,30.01,WNW,292,1.0,6.0,1,0.00,,,0.03,Weather View 32 v70,2013-01-25 05:00:00,
2013-01-24 21:30:00,54.0,-44.7,30.03,WSW,247,0.0,8.0,1,0.00,,,0.03,Weather View 32 v70,2013-01-25 05:30:00,
2013-01-24 22:00:00,53.0,-45.3,30.03,West,270,2.0,9.0,1,0.00,,,0.03,Weather View 32 v70,2013-01-25 06:00:00,
2013-01-24 22:30:00,52.0,-46.0,30.03,WSW,247,0.0,9.0,1,0.01,,,0.04,Weather View 32 v70,2013-01-25 06:30:00,
2013-01-24 23:00:00,52.0,-46.0,30.04,WSW,247,0.0,7.0,1,0.01,,,0.04,Weather View 32 v70,2013-01-25 07:00:00,
2013-01-24 23:30:00,52.0,-46.0,30.04,WNW,292,0.0,5.0,1,0.00,,,0.04,Weather View 32 v70,2013-01-25 07:30:00,